www.pogodaiklimat.ru

Погода и климат >> Архив погоды >> Норвегия >> Твейтсунд


ПОГОДА в Твейтсунде

  • Прогноз погоды в Твейтсунде
  • Монитор погоды в Твейтсунде

АРХИВ ПОГОДЫ в Твейтсунде

Время (UTC), дата Ветер
(напр.,м/с)
 
Видим.   Явления Облачность Т
(С)
Тd
(С)
f
(%)
Тe
(С)
Тes
(С)
Комфортность P
(гПа)
Po
(гПа)
Тmin
(С)
Tmax
(С)
R
(мм)
R24
(мм)
S
(см)
13 11.09 ЮВ 3
{6}
н/о н/о +11.5 +10.6 94 +10 +10 1005.2 975.1 0.6
14 11.09 ЮВ 2
{6}
н/о н/о +12.1 +11.3 95 +11 +11 1004.3 974.3 0.4
15 11.09 В 2
{5}
н/о н/о +12.8 +11.9 94 +12 +12 1003.5 973.6 0.1
16 11.09 В 1
{5}
н/о н/о +13.4 +12.3 93 +14 +14 1003.4 973.6 0.2
17 11.09 Ю 2
{4}
н/о н/о +13.3 +12.2 93 +13 +13 1003.6 973.7 0.1
18 11.09 ЮВ 2
{6}
н/о н/о +12.5 +11.7 95 +11 +11 1004.7 974.7 +10.5 +13.5 4
19 11.09 С 1
{4}
н/о н/о +12.0 +10.1 88 +12 +12 1006.0 975.9
20 11.09 СВ 2
{8}
н/о н/о +12.2 +8.1 76 +11 +11 1006.8 976.7
21 11.09 С 1
{5}
н/о н/о +10.4 +8.0 85 +10 +10 1007.9 977.6
22 11.09 В 1
{3}
н/о н/о +8.3 +7.6 95 +7 +7 1008.6 978.1
23 11.09 СВ 1
{3}
н/о н/о +8.0 +6.9 93 +7 +7 1009.4 978.8
00 12.09 СВ 1
{8}
н/о н/о +7.9 +7.0 94 +7 +7 1009.9 979.3
01 12.09 З 2
{8}
н/о н/о +11.7 +7.0 73 +11 +11 1010.5 980.3
02 12.09 ЮВ 1
{6}
н/о н/о +10.8 +7.5 80 +11 +11 1010.8 980.5
03 12.09 В 1
{4}
н/о н/о +10.6 +7.8 83 +10 +10 1011.2 980.8
04 12.09 ЮВ 3
{6}
н/о н/о +9.9 +7.8 87 +8 +8 1011.6 981.1
05 12.09 В 2
{4}
н/о н/о +10.2 +7.6 84 +9 +9 1012.0 981.6
06 12.09 Ю 3
{8}
н/о н/о +10.5 +7.6 82 +8 +8 1012.5 982.1 +7.5 +13.2
07 12.09 ЮЗ 3
{5}
н/о н/о +12.4 +7.7 73 +11 +11 1013.1 982.9
08 12.09 Ю 2
{6}
н/о н/о +13.3 +7.8 69 +13 +13 1013.9 983.7
09 12.09 ЮВ 2
{5}
н/о н/о +13.8 +8.2 69 +13 +13 1013.8 983.7
10 12.09 Ю 2
{10}
н/о н/о +14.9 +7.5 61 +15 +15 1014.2 984.2
11 12.09 З 3
{10}
н/о н/о +15.8 +5.7 51 +15 +15 1014.2 984.3
12 12.09 Ю 5
{11}
н/о н/о +15.3 +6.3 55 +14 +14 1014.3 984.3
13 12.09 ЮЗ 5
{9}
н/о н/о +14.8 +7.1 60 +13 +13 1014.3 984.3
14 12.09 Ю 3
{11}
н/о н/о +14.1 +7.9 66 +13 +13 1014.7 984.6
15 12.09 ЮЗ 2
{8}
н/о н/о +14.4 +6.5 59 +14 +14 1014.5 984.4
16 12.09 З 2
{9}
н/о н/о +13.9 +6.0 59 +14 +14 1014.2 984.1
17 12.09 ЮЗ 3
{10}
н/о н/о +13.6 +6.5 62 +13 +13 1014.1 984.0
18 12.09 З 2
{11}
н/о н/о +13.0 +6.1 63 +12 +12 1014.5 984.3 +16.5
19 12.09 В 1
{7}
н/о н/о +11.0 +6.6 74 +11 +11 1014.6 984.2
20 12.09 Ю 2
{5}
н/о н/о +12.4 +6.9 69 +12 +12 1014.5 984.2
21 12.09 Ю 1
{5}
н/о н/о +11.5 +6.2 70 +11 +11 1014.4 984.0
22 12.09 СВ 2
{7}
н/о н/о +11.2 +5.7 69 +10 +10 1014.2 983.8
23 12.09 СВ 1
{5}
н/о н/о +10.3 +6.1 75 +10 +10 1014.5 984.0
00 13.09 З 1
{11}
н/о н/о +11.0 +5.8 70 +11 +11 1014.8 984.4
01 13.09 З 2
{5}
н/о н/о +10.4 +4.8 68 +9 +9 1015.1 984.6
02 13.09 З 3
{10}
н/о н/о +11.3 +3.8 60 +10 +10 1015.4 985.0
03 13.09 С 2
{8}
н/о н/о +9.8 +4.6 70 +8 +8 1016.1 985.5
04 13.09 С 1
{7}
н/о н/о +9.4 +3.8 68 +9 +9 1016.8 986.1
05 13.09 С 2
{6}
н/о н/о +9.4 +3.0 64 +8 +8 1017.6 986.9
06 13.09 С 2
{10}
н/о н/о +9.9 +2.5 60 +9 +9 1018.2 987.5 +8.8 +13.0
07 13.09 СЗ 2
{6}
н/о н/о +11.9 +3.2 55 +11 +11 1018.7 988.2
08 13.09 З 3
{9}
н/о н/о +12.3 +2.5 51 +11 +11 1019.7 989.3
09 13.09 З 4
{11}
н/о н/о +13.3 +3.4 51 +12 +12 1020.3 989.9
10 13.09 З 4 н/о н/о +13.7 +3.2 49 +12 +12 1021.0 990.7
11 13.09 СЗ 4 н/о н/о +14.2 +4.0 50 +13 +13 1021.5 991.2
12 13.09 З 4
{11}
н/о н/о +13.8 +2.7 47 +13 +13 1022.5 992.1
13 13.09 З 3 н/о н/о +14.0 +3.5 49 +13 +13 1022.6 992.2
14 13.09 З 4 н/о н/о +14.9 +3.1 45 +14 +14 1022.5 992.2
15 13.09 З 4 н/о н/о +14.6 +3.4 47 +14 +14 1023.3 993.0
16 13.09 СЗ 4 н/о н/о +12.8 +3.2 52 +11 +11 1023.6 993.1
17 13.09 н/о н/о
18 13.09 З 3
{12}
н/о н/о +11.1 +2.2 54 +10 +10 1024.4 993.7 +15.1
19 13.09 СВ 2 н/о н/о +9.5 +2.4 61 +8 +8 1025.0 994.1
20 13.09 СВ 1 н/о н/о +6.4 +3.2 80 +5 +5 1025.6 994.4
21 13.09 З 2 н/о н/о +8.8 +2.8 66 +7 +7 1025.6 994.6
22 13.09 З 3 н/о н/о +10.7 +3.3 60 +9 +9 1025.7 994.9
23 13.09 З 1 н/о н/о +9.7 +3.0 63 +9 +9 1025.7 994.8
00 14.09 СВ 1
{10}
н/о н/о +7.0 +3.3 77 +6 +6 1025.8 994.6
01 14.09 С 1
{4}
н/о н/о +7.9 +3.4 73 +7 +7 1026.2 995.1
02 14.09 С 2
{4}
н/о н/о +8.3 +3.2 70 +7 +7 1026.1 995.0
03 14.09 ЮВ 2 н/о н/о +7.8 +3.3 73 +6 +6 1026.1 995.0
04 14.09 В 1
{2}
н/о н/о +6.8 +4.6 86 +6 +6 1026.1 994.9
05 14.09 С 1
{3}
н/о н/о +5.9 +3.9 87 +5 +5 1026.3 995.0
06 14.09 В 1
{4}
н/о н/о +6.2 +4.5 89 +5 +5 1026.2 994.9 +5.7
07 14.09 ЮВ 1 н/о н/о +7.7 +5.3 85 +7 +7 1026.4 995.3
08 14.09 Ю 2
{4}
н/о н/о +10.3 +4.7 68 +9 +9 1025.7 994.9
09 14.09 Ю 1
{4}
н/о н/о +10.9 +5.2 68 +11 +11 1025.5 994.7
10 14.09 ЮЗ 3
{7}
н/о н/о +13.5 +7.7 68 +12 +12 1024.4 993.9
11 14.09 ЮЗ 4
{12}
н/о н/о +12.4 +7.3 71 +11 +11 1024.4 993.8
12 14.09 З 2
{12}
н/о н/о +12.6 +7.9 73 +12 +12 1023.5 993.0 0.1
13 14.09 ЮЗ 3
{7}
н/о н/о +13.1 +6.9 66 +12 +12 1022.3 991.9
14 14.09 ЮЗ 4
{10}
н/о н/о +13.1 +6.7 65 +12 +12 1020.9 990.5
15 14.09 ЮЗ 5
{12}
н/о н/о +12.7 +6.1 64 +11 +11 1019.4 989.0
16 14.09 ЮЗ 4
{12}
н/о н/о +11.6 +6.1 69 +10 +10 1018.2 987.7
17 14.09 ЮЗ 2
{9}
н/о н/о +11.5 +6.0 69 +11 +11 1016.3 985.9
18 14.09 ЮЗ 4
{12}
н/о н/о +11.0 +6.4 73 +9 +9 1015.8 985.3 +6.2 +14.2 0.1
19 14.09 ЮЗ 4
{10}
н/о н/о +10.9 +6.5 74 +9 +9 1013.0 982.6
20 14.09 Ю 2
{11}
н/о н/о +10.6 +7.3 80 +9 +9 1011.4 981.0
21 14.09 Ю 2
{7}
н/о н/о +10.7 +8.5 86 +9 +9 1009.7 979.4 0.2
22 14.09 ЮЗ 3
{7}
н/о н/о +12.2 +9.2 82 +11 +11 1007.9 977.8 0.6
23 14.09 Ю 2
{9}
н/о н/о +12.4 +9.6 83 +11 +11 1006.2 976.2 0.8
00 15.09 ЮЗ 4
{11}
н/о н/о +12.5 +9.9 84 +11 +11 1005.3 975.3 2
01 15.09 З 3
{8}
н/о н/о +12.1 +8.2 77 +11 +11 1005.2 975.2 2
02 15.09 СЗ 4
{10}
н/о н/о +10.9 +6.7 75 +9 +9 1004.9 974.8 0.3
03 15.09 СЗ 2
{12}
н/о н/о +10.2 +4.8 69 +9 +9 1003.3 973.1
04 15.09 СЗ 3
{8}
н/о н/о +10.6 +3.6 62 +9 +9 1002.6 972.5
05 15.09 СЗ 4
{11}
н/о н/о +10.1 +4.1 66 +8 +8 1002.8 972.6
06 15.09 СЗ 4
{12}
н/о н/о +9.9 +3.9 66 +7 +7 1002.7 972.5 +9.9 +12.8 5
07 15.09 СЗ 4
{11}
н/о н/о +11.0 +2.6 56 +9 +9 1003.0 972.9
08 15.09 СЗ 5
{16}
н/о н/о +11.0 +3.1 58 +9 +9 1003.0 972.9
09 15.09 З 6
{17}
н/о н/о +11.6 +2.6 54 +9 +9 1002.8 972.8
10 15.09 СЗ 5
{15}
н/о н/о +11.8 +3.6 57 +10 +10 1002.3 972.3
11 15.09 СЗ 6
{20}
н/о н/о +12.7 +4.2 56 +10 +10 1001.9 972.0 0.1
12 15.09 З 7
{20}
н/о н/о +13.2 +3.6 52 +11 +11 1001.4 971.6
13 15.09 З 7
{18}
н/о н/о +13.5 +4.1 53 +11 +11 1001.5 971.7
14 15.09 З 7
{19}
н/о н/о +13.7 +3.8 51 +12 +12 1000.9 971.2
15 15.09 З 7
{20}
н/о н/о +13.7 +4.1 52 +12 +12 1001.2 971.5
16 15.09 З 8
{20}
н/о н/о +13.4 +3.5 51 +11 +11 1000.7 970.9
17 15.09 З 7
{19}
н/о н/о +12.6 +3.8 55 +10 +10 1001.2 971.3
18 15.09 З 7
{20}
н/о н/о +12.0 +3.8 57 +9 +9 1001.3 971.4 +9.9 +13.9 0.1
19 15.09 З 7
{19}
н/о н/о +11.8 +3.3 56 +9 +9 1001.9 971.9
20 15.09 З 7
{20}
н/о н/о +11.4 +2.7 55 +8 +8 1003.0 973.0
21 15.09 СЗ 7
{17}
н/о н/о +10.9 +1.7 53 +8 +8 1004.1 974.0
22 15.09 СЗ 4
{14}
н/о н/о +10.3 +0.6 51 +8 +8 1005.1 974.9
23 15.09 СЗ 4
{12}
н/о н/о +9.7 -0.2 50 +7 +7 1005.9 975.6
00 16.09 СЗ 6
{20}
н/о н/о +9.8 -1.5 45 +7 +7 1006.5 976.2
01 16.09 СЗ 3
{11}
н/о н/о +9.1 -0.5 51 +7 +7 1007.3 976.9
02 16.09 СЗ 3
{10}
н/о н/о +9.2 +0.4 54 +7 +7 1008.1 977.7
03 16.09 С 3
{7}
н/о н/о +8.8 +0.5 56 +7 +7 1008.6 978.1
04 16.09 СЗ 3
{11}
н/о н/о +8.8 0.0 54 +7 +7 1009.1 978.6
05 16.09 З 3
{9}
н/о н/о +8.6 +1.3 60 +6 +6 1009.0 978.5
06 16.09 З 4
{11}
н/о н/о +8.9 +1.6 60 +6 +6 1009.0 978.5 +8.0 +12.0
07 16.09 З 4
{9}
н/о н/о +9.9 +1.8 57 +8 +8 1009.4 979.0
08 16.09 З 3
{10}
н/о н/о +10.9 +1.7 53 +9 +9 1009.4 979.1
09 16.09 З 3
{11}
н/о н/о +11.2 +2.3 54 +10 +10 1009.8 979.5
10 16.09 З 3
{11}
н/о н/о +12.2 +1.5 48 +11 +11 1009.6 979.4
11 16.09 З 4
{11}
н/о н/о +12.1 +2.0 50 +10 +10 1010.0 979.8
12 16.09 З 4
{11}
н/о н/о +13.1 +2.1 47 +12 +12 1009.7 979.7
13 16.09 СЗ 4
{10}
н/о н/о +13.3 +2.6 48 +12 +12 1009.5 979.5
14 16.09 СЗ 3
{9}
н/о н/о +13.7 +3.5 50 +13 +13 1009.3 979.3
15 16.09 З 3
{8}
н/о н/о +12.9 +3.3 52 +12 +12 1009.1 979.0
16 16.09 З 2
{9}
н/о н/о +12.0 +3.3 55 +11 +11 1008.6 978.5
17 16.09 З 2
{6}
н/о н/о +10.5 +3.1 60 +9 +9 1008.5 978.2
18 16.09 СЗ 1
{10}
н/о н/о +9.4 +4.0 69 +9 +9 1008.3 977.9 +8.8 +13.9
19 16.09 С 2
{6}
н/о н/о +8.9 +4.5 74 +7 +7 1007.7 977.3
20 16.09 С 1
{3}
н/о н/о +7.0 +4.8 86 +6 +6 1007.5 976.9
21 16.09 СВ 1
{2}
н/о н/о +5.6 +4.1 90 +4 +4 1006.9 976.1
22 16.09 В 1
{2}
н/о н/о +5.7 +4.2 90 +4 +4 1006.5 975.8
23 16.09 СЗ 3
{8}
н/о н/о +8.2 +1.4 62 +6 +6 1006.0 975.5
00 17.09 СЗ 3
{9}
н/о н/о +7.3 +0.5 62 +5 +5 1005.8 975.3
01 17.09 СЗ 2
{8}
н/о н/о +6.8 -0.2 61 +5 +5 1005.5 974.9
02 17.09 С 2
{8}
н/о н/о +6.1 -0.2 64 +4 +4 1005.3 974.6
03 17.09 СЗ 3
{8}
н/о н/о +6.4 -1.2 58 +4 +4 1004.6 974.0
04 17.09 СЗ 3
{7}
н/о н/о +6.2 -0.1 64 +3 +3 1004.0 973.4
05 17.09 СЗ 2
{6}
н/о н/о +5.4 +0.2 69 +3 +3 1003.3 972.6
06 17.09 С 4
{10}
н/о н/о +6.4 -0.3 62 +3 +3 1003.1 972.5 +5.0 +9.5
07 17.09 С 2
{8}
н/о н/о +7.5 -0.2 58 +6 +6 1003.3 972.8
08 17.09 С 4
{12}
н/о н/о +8.0 -1.0 53 +5 +5 1003.9 973.5
09 17.09 С 5
{10}
н/о н/о +9.3 -2.0 45 +7 +7 1004.7 974.4
10 17.09 С 4
{10}
н/о н/о +10.7 -1.0 44 +9 +9 1005.2 975.0
11 17.09 СЗ 4
{10}
н/о н/о +11.4 -1.7 40 +10 +10 1005.7 975.6
12 17.09 С 4
{12}
н/о н/о +11.8 -1.3 40 +10 +10 1006.4 976.3
13 17.09 СЗ 4
{10}
н/о н/о +12.6 -0.9 39 +11 +11 1006.7 976.7
14 17.09 СЗ 4
{10}
н/о н/о +12.6 -3.2 33 +11 +11 1007.7 977.6
15 17.09 СЗ 4
{10}
н/о н/о +12.0 -2.2 37 +10 +10 1008.8 978.7
16 17.09 СЗ 3
{9}
н/о н/о +11.6 -0.8 42 +10 +10 1009.7 979.5
17 17.09 СЗ 3
{8}
н/о н/о +10.2 0.0 49 +9 +9 1010.6 980.2
18 17.09 С 3
{10}
н/о н/о +10.0 +0.6 52 +8 +8 1011.2 980.8 +12.7
19 17.09 СЗ 4
{11}
н/о н/о +10.0 +0.6 52 +8 +8 1012.0 981.5
20 17.09 С 4
{8}
н/о н/о +9.9 +0.8 53 +8 +8 1012.9 982.4
21 17.09 С 3
{8}
н/о н/о +9.6 +0.8 54 +8 +8 1013.8 983.2
22 17.09 СЗ 3
{7}
н/о н/о +9.0 +1.0 57 +7 +7 1014.2 983.6
23 17.09 СЗ 4
{8}
н/о н/о +9.1 +0.6 55 +7 +7 1014.6 984.0
00 18.09 СЗ 3
{11}
н/о н/о +8.4 +0.4 57 +6 +6 1015.3 984.6
01 18.09 СЗ 2
{8}
н/о н/о +7.8 -0.2 57 +6 +6 1015.7 984.9
02 18.09 СЗ 3
{9}
н/о н/о +7.9 -0.5 55 +6 +6 1016.0 985.2
03 18.09 СЗ 3
{11}
н/о н/о +7.9 -1.1 53 +6 +6 1016.0 985.2
04 18.09 СЗ 3
{8}
н/о н/о +7.5 -1.2 54 +5 +5 1016.6 985.7
05 18.09 С 2
{8}
н/о н/о +6.6 -0.8 59 +5 +5 1017.0 986.0
06 18.09 С 1
{11}
н/о н/о +5.8 -0.2 65 +5 +5 1017.5 986.4 +5.7
07 18.09 С 3
{5}
н/о н/о +8.5 +0.7 58 +6 +6 1017.6 986.8
08 18.09 С 4
{8}
н/о н/о +10.1 +0.5 51 +8 +8 1017.8 987.2
09 18.09 С 4
{8}
н/о н/о +11.2 +0.3 47 +9 +9 1018.0 987.5
10 18.09 С 3
{8}
н/о н/о +12.2 +0.3 44 +11 +11 1018.3 987.9
11 18.09 С 3
{6}
н/о н/о +13.0 +0.4 42 +12 +12 1018.3 988.0
12 18.09 З 3
{8}
н/о н/о +13.1 +2.4 48 +12 +12 1018.4 988.1

 

Местоположение метеостанции Твейтсунд (Норвегия): широта 59.03 долгота 8.52 высота над уровнем моря 252 м.

В архиве по умолчанию представлена погода в Твейтсунде за последнюю неделю. Архивные данные за месяц целиком и за предыдущие месяцы, начиная с января 2011 года, Вы можете получить, выбрав интересующий диапазон дат из раскрывающегося списка и нажав кнопку "Ввод!".


*Определитесь, кто Вы:
робот инопланетянин человек

Внимание! Время в таблицах - всемирное. Для получения местного времени необходимо прибавить поправку, которая равна 1 ч.

Смотрите также архив погоды в соседних городах и на ближайших метеорологических станциях:

Погода в Гьерстаде (Норвегия) (34 км)
Погода в Нелауге (Норвегия) (43 км)
Погода в Хюннеклейве (Норвегия) (48 км)
Погода во Гварве (Норвегия) (55 км)
Погода в Хойдалсмо (Норвегия) (55 км)
Погода в Бигландсфьорде (Норвегия) (56 км)
Погода на Маяке Lyngor (Норвегия) (57 км)
Погода в Валле (Норвегия) (60 км)
Погода в Йомфрулянде (Норвегия) (63 км)
Погода в Порсгрунне (Норвегия) (66 км)

Пояснения к столбцам:

Ветер - указаны скорость ветра в м/с - средняя за 10 мин, порывы в срок и между сроками (в фигурных скобках) и направление, откуда дует ветер: С - северный, СВ - северо-восточный, В - восточный, ЮВ - юго-восточный, Ю - южный, ЮЗ - юго-западный, З - западный, СЗ - северо-западный.
Видимость - горизонтальная дальность видимости в метрах или километрах. При видимости от 1 до 10 км при отсутствии осадков обычно наблюдается дымка, при ухудшении видимости до 1 км и менее - туман. В сухую погоду видимость может ухудшаться дымом, пылью или мглою.
Явления - указаны атмосферные явления, наблюдавшиеся в срок или в последний час перед сроком; фигурными скобками обозначены явления, наблюдавшиеся между сроками (за 1-3 часа до срока); квадратными скобками обозначены град или гололедные отложения с указанием их диаметра в мм.
Облачность - указаны через наклонную черту общая и нижняя облачность в баллах и высота нижней границы облаков в метрах; квадратными скобками обозначены формы облаков: Ci - перистые, Cs - перисто-слоистые, Cc - перисто-кучевые, Ac - высококучевые, As - высокослоистые, Sc - слоисто-кучевые, Ns - слоисто-дождевые, Cu - кучевые, Cb - кучево-дождевые. Подробнее классификацию облаков см. в Атласе облаков (PDF).
T - Температура воздуха - температура, измеренная на высоте 2 м над землей.
Td - Температура точки росы - температура, при понижении до которой содержащийся в воздухе водяной пар достигнет насыщения.
f - Относительная влажность воздуха - влажноcть воздуха, измеренная на высоте 2 м над землей.
Te - Эффективная температура - температура, которую ощущает одетый по сезону человек в тени. Характеристика душности погоды. При расчете учитывается влияние влажности воздуха и скорости ветра на теплоощущения человека.
Tes - Эффективная температура на солнце - температура, которую ощущает человек, с поправкой на солнечный нагрев. Характеристика знойности погоды. Зависит от высоты солнца над горизонтом, облачности и скорости ветра. Ночью, в пасмурную погоду, а также при ветре 12 м/с и более поправка равна нулю.
P - Атмосферное давление - приведенное к уровню моря атмосферное давление.
Po - Атмосферное давление - измеренное на уровне метеостанции атмосферное давление.
Tmin - Минимальная температура - минимум температуры воздуха на высоте 2 м над землей.
Tmax - Максимальная температура - максимум температуры воздуха на высоте 2 м над землей.
R - Количество осадков - Количество выпавших осадков за период времени, мм. При наведении курсора мыши на число - период времени, за который выпало указанное количество осадков.
R24 - Количество осадков - Количество выпавших осадков за 24 часа, мм.
S - Снежный покров - Высота снежного покрова, см. При наведении курсора мыши на число - состояние снежного покрова и степень покрытия местности в баллах.